Location: 相模原市立博物館
(35.5593°N, 139.3931°E)
Time: 01:04:12
(UTC+09:00)

ISS - Visible Passes

Search period start: 01 June 2023 00:00
Search period end: 11 June 2023 00:00
Orbit: 412 x 419 km, 51.6° (Epoch: 31 May)

Date Brightness Start Highest point End Pass type
(mag) Time Alt. Az. Time Alt. Az. Time Alt. Az.
01 Jun -2.5 20:30:15 10° WNW 20:33:13 30° SW 20:34:00 26° SSW visible
02 Jun -3.4 19:41:17 10° NW 19:44:34 59° SW 19:47:19 14° SSE visible
04 Jun -1.5 19:41:08 10° W 19:43:28 18° SW 19:45:49 10° S visible
